User: anonymous   Login
Location: Unspecified
(0.0000°N, 0.0000°E)
Time: 03:59:43
(UTC+02:00)
Language:

Gurwin Techsat 1B - Orbit

View from above orbital plane
View from above orbital plane
View from above satellite
View from above satellite

Ground track
Ground track

The orbit data is extracted from the following two-line orbital elements,

1 25397U 98043D   16268.38223171  .00000003  00000-0  20051-4 0  9995
2 25397  98.5753 210.7877 0002347  68.9046 291.2384 14.23603123945974
Epoch (UTC): 24 September 2016 09:10:24
Eccentricity: 0.0002347
inclination: 98.5753°
perigee height: 811 km
apogee height: 815 km
right ascension of ascending node: 210.7877°
argument of perigee: 68.9046°
revolutions per day: 14.23603123
mean anomaly at epoch: 291.2384°
orbit number at epoch: 94597

The dashed part of the orbit path shows where the satellite is in the earth's shadow,  

DLR